Location: Unspecified
(43.3830°N, 0.0000°E)
Time: 02:56:54
(UTC+00:00)

Explorer 7 - Pass Details

Date: 03 July 2019
Orbit: 485 x 680 km, 50.3° (Epoch: 17 July)

Event Time Altitude Azimuth Distance (km) Brightness Sun altitude
Rises 02:54:51 0° 180° (S) 2,561 - -12.9°
Exits shadow 02:56:47 - 164° (SSE) 2,034 9.4 -12.7°
Reaches altitude 10° 02:58:54 10° 137° (SE) 1,723 9.3 -12.5°
Maximum altitude 02:59:31 10° 128° (SE) 1,710 9.4 -12.4°
Drops below altitude 10° 03:00:09 10° 119° (ESE) 1,738 9.5 -12.3°
Sets 03:04:21 0° 77° (ENE) 2,689 11.3 -11.8°
